Regional Weather Roundup
Issued by NWS

Home | Current Version | Previous Version | Graphics & Text | Print | Product List | Glossary On
Versions: 1 2 3 4 5 6 7 8 9 10 11 12 13 14 15 16 17 18 19 20 21 22 23 24 25 26 27 28 29 30 31 32 33 34 35 36 37 38 39 40 41 42 43 44 45 46 47 48 49 50
000
ASUS43 KDMX 110506
RWRIA

WEATHER ROUNDUP FOR IOWA
NATIONAL WEATHER SERVICE DES MOINES IA
1100 PM CST SUN DEC 10 2017

NOTE: "FAIR" INDICATES FEW OR NO CLOUDS BELOW 12,000 FEET WITH NO
SIGNIFICANT WEATHER AND/OR OBSTRUCTIONS TO VISIBILITY.

* - THESE STATIONS ARE NOT NWS STATIONS...THUS NOT UNDER NWS
QUALITY CONTROL.  THEY ALSO DO NOT REPORT WEATHER SUCH
AS PRECIPITATION OR FOG.

IAZ001>003-012>014-020>022-031>034-043>046-110600-
   NORTHWEST IOWA

CITY           SKY/WX    TMP DP  RH WIND       PRES   REMARKS
CARROLL *      CLOUDY    32  23  69 CALM      30.00F
CHEROKEE *     CLOUDY    31  26  81 S5        29.98F WCI  27
DENISON *      CLOUDY    30  23  74 CALM      30.02F
LE MARS *      CLOUDY    30  25  80 S7        29.99F WCI  23
ORANGE CITY *  CLOUDY    30  28  93 CALM      29.97F
SHELDON *      CLOUDY    32  28  86 SW7       29.95F WCI  26
SIOUX CITY     PTCLDY    30  22  72 CALM      30.01F
SPENCER        CLOUDY    32  26  78 SW6       29.97F WCI  26
STORM LAKE *   CLOUDY    32  25  74 SW7       29.98F WCI  26
$$

IAZ055>058-069>071-079>083-090>094-110600-
   SOUTHWEST IOWA

CITY           SKY/WX    TMP DP  RH WIND       PRES   REMARKS
ATLANTIC *     CLOUDY    28  23  80 SW6       30.04F WCI  22
AUDUBON *      CLOUDY    30  25  80 CALM      30.02F
CLARINDA *     CLOUDY    23  19  86 SW6         N/A  WCI  16
COUNCIL BLFS * CLOUDY    37  27  65 S8        30.04F WCI  31
CRESTON *      CLOUDY    32  25  74 CALM      30.06F
HARLAN  *      CLOUDY    28  23  80 S5        30.06F WCI  23
LAMONI         CLOUDY    37  24  59 CALM      30.07F
RED OAK *      CLOUDY    25  21  86 CALM      30.06F
SHENANDOAH *   CLOUDY    27  21  80 CALM      30.08F
$$

IAZ047>049-059>061-072>074-084-110600-
   CENTRAL IOWA

CITY           SKY/WX    TMP DP  RH WIND       PRES   REMARKS
AMES           CLOUDY    31  25  78 CALM      30.03F
ANKENY *       CLOUDY    32  25  74 CALM      30.05S
BOONE *        CLOUDY    34  25  69 SW5       30.01F WCI  30
CHARITON *     CLOUDY    32  25  74 S6        30.05F WCI  26
DES MOINES     CLOUDY    35  25  66 S7        30.05F WCI  29
GRINNELL*      CLOUDY    31  24  74 S5        30.05F WCI  26
KNOXVILLE *    CLOUDY    32  23  69 S6        30.04F WCI  26
MARSHALLTOWN   CLOUDY    32  23  69 SE6       30.02F WCI  26
NEWTON *       CLOUDY    32  23  69 S6        30.04F WCI  26
PELLA *        CLOUDY    32  24  73 CALM      30.06F
PERRY *          N/A     33  22  64 S6        30.03S WCI  27
$$

IAZ004>006-015-016-023>025-035-036-110600-
   NORTH CENTRAL IOWA

CITY           SKY/WX    TMP DP  RH WIND       PRES   REMARKS
ALGONA *       MOCLDY    32  25  74 S5        29.97F WCI  27
CLARION *      CLOUDY    32  25  74 S7        29.99F WCI  26
ESTHERVILLE    PTCLDY    31  29  92 CALM      29.97S
FORT DODGE *   CLOUDY    32  25  75 S3        29.99F
MASON CITY     MOCLDY    29  22  75 S6        30.00F WCI  23
FOREST CITY *  MOCLDY    32  27  80 S3        29.99R
WEBSTER CITY * CLOUDY    32  23  69 S8        29.99S WCI  25
IOWA FALLS *     N/A     32  24  73 S6        30.02F WCI  26
$$

IAZ007>011-017>019-026>030-037>042-050>054-066-110600-
   NORTHEAST IOWA

CITY           SKY/WX    TMP DP  RH WIND       PRES   REMARKS
CEDAR RAPIDS   CLOUDY    29  23  78 SE5       30.04F WCI  24
CHARLES CITY * CLOUDY    27  25  93 SE5       30.00F WCI  21
CLINTON *      CLOUDY    20  17  88 CALM      30.08F
DECORAH *      CLOUDY    23  21  93 SE3       30.00F
DUBUQUE        CLOUDY    19  15  84 E3        30.04F
MONTICELLO *   CLOUDY    18  16  93 CALM      30.05S
OELWEIN *      CLOUDY    23  23 100 SE5       30.02F WCI  17
WATERLOO       CLOUDY    29  22  75 S3        30.03F
$$

IAZ064-065-067-068-078-110600-
   EAST CENTRAL IOWA

CITY           SKY/WX    TMP DP  RH WIND       PRES   REMARKS
DAVENPORT      CLOUDY    22  18  85 SW3       30.10F
IOWA CITY      CLOUDY    30  24  78 SE5       30.08F WCI  25
MT. PLEASANT * CLOUDY    30  23  74 SE6       30.08F WCI  24
MUSCATINE *    CLOUDY    28  25  86 CALM      30.09F
QUAD CITIES    CLOUDY    21  17  84 CALM      30.08F
$$

IAZ062-063-075>077-085>089-095>099-110600-
   SOUTHEAST IOWA

CITY           SKY/WX    TMP DP  RH WIND       PRES   REMARKS
BURLINGTON     CLOUDY    32  24  72 SE5       30.09F WCI  27
FAIRFIELD *    CLOUDY    30  23  74 S5        30.07F WCI  25
FORT MADISON * CLOUDY    34  25  69 CALM      30.10F
KEOKUK *       CLOUDY    32  25  74 CALM      30.09F
OSKALOOSA *      N/A     31  23  73 S6        30.06F WCI  25
OTTUMWA        CLOUDY    32  24  72 SE6       30.06F WCI  26
WASHINGTON *   CLOUDY    30  25  80 SE7       30.08F WCI  23
$$

ABBREVIATIONS USED IN REMARKS
   TC - TEMPERATURES IN CELSIUS
  WCI - WIND CHILL INDEX
   HX - HEAT INDEX
  VSB - VISIBILITY
$$




USA.gov is the U.S. government's official web portal to all federal, state and local government web resources and services.